sat.trackr.live / text

‹ back to catalog

STARLINK-2512

NORAD 48319 · 2021-036AV

PAYLOAD ACTIVE UNKNOWN

§ Identity

Operator
Country
US
Launch date
2021-04-29
Launch site
AFETR
Launch vehicle
Mass (kg)
RCS (m²)

Purposes: comms

External: N2YO · Heavens-Above · Gunter

§ Orbital elements

Epoch: 2026-09-20T00:28:51.176064Z

Period
94.01 min
Inclination
53.1588°
Eccentricity
0.0001508
Mean motion
15.31697315 rev/d
Perigee alt
469.7 km
Apogee alt
471.8 km
Semi-major
6,848.9 km
B*
8.4027e-6
RAAN
276.7564°
Arg perigee
94.2788°
Mean anomaly
265.8386°
Rev number
29,781

§ Raw data

STARLINK-25121 48319U 21036AV  26263.02003676 -.00000105  00000+0  84027-5 0  99922 48319  53.1588 276.7564 0001508  94.2788 265.8386 15.31697315297812

JSON: /api/v1/satellites/48319 · /tle

For live sub-satellite position, see the globe view (requires WebGL).

§ Visibility from observer

Set your observer location to see the next 7 days of passes ≥ 10°. The values pass through the URL so the page stays shareable.

No JS? Fill the form by hand. The geolocation button needs JavaScript.